Weather History for KLWM - December, 2012

Change the Weather History Date:

Thursday, December 13, 2012

  Actual Average Record
Temperature  
Mean Temperature 34 °F -  
Max Temperature 43 °F 39 °F 65 °F (1979)
Min Temperature 24 °F 23 °F 1 °F (1977)
Degree Days  
Heating Degree Days 32    
Moisture  
Dew Point 22 °F    
Average Humidity 71    
Maximum Humidity 88    
Minimum Humidity 42    
Precipitation  
Precipitation 0.00 in - - ()
Sea Level Pressure  
Sea Level Pressure 30.41 in    
Wind  
Wind Speed 1 mph (SW)    
Max Wind Speed 5 mph    
Max Gust Speed -    
Visibility 10 miles    
Events      
Averages and records for this station are not official NWS values.
T = Trace of Precipitation, MM = Missing Value Source: NWS Daily Summary

Daily Weather History Graph

Daily Weather History Graph

Search for Another Location

Airport or City:

Trip Planner

Search our weather history database for the weather conditions in past years. The results will help you decide how hot, cold, wet, or windy it might be!

Date:

Astronomy

Dec. 13, 2012 Rise Set
Actual Time 7:06 AM EST 4:11 PM EST
Civil Twilight 6:34 AM EST 4:43 PM EST
Nautical Twilight 5:58 AM EST 5:18 PM EST
Astronomical Twilight 5:24 AM EST 5:53 PM EST
Moon 7:11 AM EST (12/13) 4:50 PM EST (12/13)
Length of Visible Light 10h 08m
Length of Day
9h 04m
New Moon, 0% of the Moon is Illuminated
Dec 13
New Moon
Dec 20
First Quarter
Dec 28
Full
Jan 4
Last Quarter
Jan 11
New

Hourly Weather History & Observations

Time (EST) Temp. Windchill Dew Point Humidity Pressure Visibility Wind Dir Wind Speed Gust Speed Precip Events Conditions
12:54 AM 27.0 °F - 21.0 °F 78% 30.44 in 10.0 mi Calm Calm - N/A   Clear
1:54 AM 26.1 °F - 21.0 °F 81% 30.44 in 10.0 mi Calm Calm - N/A   Clear
2:54 AM 27.0 °F - 21.9 °F 81% 30.44 in 10.0 mi Calm Calm - N/A   Clear
3:54 AM 25.0 °F - 21.9 °F 88% 30.43 in 10.0 mi Calm Calm - N/A   Clear
4:54 AM 26.1 °F 21.9 °F 21.9 °F 84% 30.43 in 10.0 mi SSW 3.5 mph - N/A   Clear
5:54 AM 25.0 °F - 21.0 °F 85% 30.45 in 10.0 mi Calm Calm - N/A   Clear
6:54 AM 24.1 °F - 21.0 °F 88% 30.47 in 9.0 mi Calm Calm - N/A   Clear
7:54 AM 25.0 °F - 21.9 °F 88% 30.45 in 8.0 mi Calm Calm - N/A   Clear
8:54 AM 28.9 °F - 25.0 °F 85% 30.49 in 9.0 mi Calm Calm - N/A   Clear
9:54 AM 33.1 °F - 25.0 °F 72% 30.47 in 10.0 mi Calm Calm - N/A   Clear
10:54 AM 37.9 °F - 26.1 °F 62% 30.43 in 10.0 mi Calm Calm - N/A   Clear
11:54 AM 42.1 °F - 25.0 °F 51% 30.43 in 10.0 mi Calm Calm - N/A   Clear
12:54 PM 43.0 °F 41.3 °F 21.0 °F 42% 30.41 in 10.0 mi Variable 3.5 mph - N/A   Clear
1:54 PM 42.1 °F - 23.0 °F 47% 30.40 in 10.0 mi Calm Calm - N/A   Clear
2:54 PM 42.1 °F 39.2 °F 21.9 °F 45% 30.39 in 10.0 mi SW 4.6 mph - N/A   Partly Cloudy
3:54 PM 39.9 °F 37.8 °F 21.9 °F 49% 30.38 in 10.0 mi WSW 3.5 mph - N/A   Clear
4:54 PM 37.0 °F - 21.9 °F 54% 30.38 in 10.0 mi Calm Calm - N/A   Clear
7:54 PM 30.2 °F - 23.0 °F 75% 30.36 in 10.0 mi Calm Calm - N/A   Clear
8:54 PM 28.9 °F 25.2 °F 21.9 °F 75% 30.35 in 10.0 mi SSW 3.5 mph - N/A   Clear
9:54 PM 28.9 °F 25.2 °F 21.9 °F 75% 30.34 in 10.0 mi SSW 3.5 mph - N/A   Clear
10:54 PM 28.0 °F - 21.9 °F 78% 30.32 in 10.0 mi Calm Calm - N/A   Clear
11:54 PM 28.0 °F - 21.0 °F 75% 30.30 in 10.0 mi Calm Calm - N/A   Clear